Weather Roundup
Issued by NWS

Home | Current Version | Previous Version | Graphics & Text | Print | Product List | Glossary Off
Versions: 1 2 3 4 5 6 7 8 9 10 11 12 13 14 15 16 17 18 19 20 21 22 23 24 25 26 27 28 29 30 31 32 33 34 35 36 37 38 39 40 41 42 43 44 45 46 47 48 49 50

000
NZUS93 KARX 040810
HRRWXR

CURRENT HOURLY OBSERVATIONS ACROSS
MUCH OF THE UPPER MISSISSIPPI VALLEY
NATIONAL WEATHER SERVICE LA CROSSE WI
300 AM CDT TUE AUG 04 2015


...SOUTHEAST MINNESOTA...


CITY           SKY/WX    TMP DP  RH WIND       PRES   REMARKS
ROCHESTER      CLEAR     56  52  86 NW8       29.97S
ROCHESTER/MAYO FAIR      60  53  77 NW6       29.96S
WINONA         CLEAR     59  55  88 NW6       29.94S
AUSTIN         CLEAR     57  54  88 CALM      29.96S
ALBERT LEA     CLEAR     55  54  94 CALM      29.97S
DODGE CENTER   PTCLDY    57  52  82 CALM      29.96F
PRESTON        CLEAR     56  51  82 W7        29.96S
OWATONNA       CLEAR     52  48  87 CALM      29.97S
FARIBAULT      CLEAR     57  54  88 NW5       29.97S
$$

...ELSEWHERE IN MINNESOTA...


CITY           SKY/WX    TMP DP  RH WIND       PRES   REMARKS
MINNEAPOLIS    CLEAR     63  54  72 SW3       29.96R
INTNL FALLS    CLEAR     42  42 100 CALM      29.91S
DULUTH         MOCLDY    54  50  86 W8        29.91S
RED WING       PTCLDY    55  54  94 CALM      29.95R
REDWOOD FALLS  CLEAR     56  51  84 CALM      29.97S
MANKATO        CLEAR     57  48  72 MISG      29.97S
WORTHINGTON    CLEAR     55  48  76 SW3       30.00S
FAIRMONT       CLEAR     57  48  72 CALM      29.98R
$$

...SOUTHWEST WISCONSIN...


CITY           SKY/WX    TMP DP  RH WIND       PRES   REMARKS
LA CROSSE      CLEAR     61  56  83 SE3       29.93R
PRAIRIE DU CHI CLEAR     56  53  89 CALM      29.94S
BOSCOBEL       CLEAR     55  53  93 SW3       29.94R
LONE ROCK      CLEAR     54  51  90 CALM      29.94R
PLATTEVILLE    CLEAR     59  55  85 W3        29.95R
FORT MC COY    PTCLDY    50  48  95 CALM      29.93R
CAMP DOUGLAS   PTCLDY    48  48 100 NW1       29.91R
VIROQUA        FAIR      56  53  87 SW7       29.94R
WIS DELLS      CLEAR     56  50  82 SW3       29.92R
$$

...ELSEWHERE IN WISCONSIN...


CITY           SKY/WX    TMP DP  RH WIND       PRES   REMARKS
MILWAUKEE      CLEAR     66  52  60 W5        29.90S
MADISON        CLEAR     60  52  74 CALM      29.91S
GREEN BAY      PTCLDY    57  55  93 W6        29.88S
EAU CLAIRE     CLEAR     58  53  84 W3        29.93R
BLACK RVR FLS  FAIR      49  49 100 CALM      29.92R
MEDFORD        CLEAR     55  53  91 W5        29.91S
WAUSAU         CLOUDY    63  55  75 NW7       29.88S
WIS RAPIDS     MOCLDY    60  51  72 NW3       29.91R
MARSHFIELD     PTCLDY    59  52  77 NW5       29.91S
RICE LAKE      CLEAR     55  52  90 CALM      29.94S
$$

...NORTHEAST IOWA...


CITY           SKY/WX    TMP DP  RH WIND       PRES   REMARKS
DECORAH        CLEAR     57  54  88 SW3       29.95S
MASON CITY     CLEAR     57  54  89 W3        29.99S
CHARLES CITY   CLEAR     57  57 100 W3        29.97S
OELWEIN        CLEAR     57  57 100 W5        29.97S
$$

...ELSEWHERE IN IOWA...


CITY           SKY/WX    TMP DP  RH WIND       PRES   REMARKS
DES MOINES     PTCLDY    69  59  70 CALM      29.94F
IOWA CITY      CLEAR     60  57  89 CALM      29.96F
FORT DODGE     CLEAR     57  55  94 CALM      29.98F
$$

...NORTHERN ILLINOIS...


CITY           SKY/WX    TMP DP  RH WIND       PRES   REMARKS
CHICAGO-OHARE  CLEAR     63  55  75 W3        29.91S
CHICAGO-MIDWAY CLEAR     68  55  63 CALM      29.91S
MOLINE         CLEAR     61  56  83 CALM      29.94F
ROCKFORD       CLEAR     59  54  83 S3        29.94S
PEORIA         CLEAR     65  58  78 N3        29.95S
$$

NOTE: "FAIR" INDICATES FEW OR NO CLOUDS BELOW 12,000 FEET WITH NO
SIGNIFICANT WEATHER AND/OR OBSTRUCTIONS TO VISIBILITY. WIND
SPEEDS ARE IN MILES-PER-HOUR.



USA.gov is the U.S. government's official web portal to all federal, state and local government web resources and services.